Location: Knowlton
(51.2333°N, 1.2667°E)
Time: 04:26:35
(UTC+00:00)

FALCON 9 DEB - Pass Details

Date: 18 April 2021
Orbit: 422 x 435 km, 53.0° (Epoch: 06 May)

Event Time Altitude Azimuth Distance (km) Brightness Sun altitude
Rises 20:43:39 0° 233° (SW) 2,381 7.0 -15.3°
Reaches altitude 10° 20:45:46 10° 228° (SW) 1,521 6.0 -15.5°
Maximum altitude 20:49:05 50° 152° (SSE) 557 3.2 -15.9°
Enters shadow 20:50:09 35° 100° (E) 719 3.8 -16.0°
